Regional Weather Roundup
Issued by NWS Goodland, KS

Home | Current Version | Previous Version | Text Only | Print | Product List | Glossary On
Versions: 1 2 3 4 5 6 7 8 9 10 11 12 13 14 15 16 17 18 19 20 21 22 23 24 25 26 27 28 29 30 31 32 33 34 35 36 37 38 39 40 41 42 43 44 45 46 47 48 49 50
000
ASUS43 KGLD 290308
RWRGLD

GOODLAND FORECAST AREA HOURLY WEATHER ROUNDUP
NATIONAL WEATHER SERVICE GOODLAND KS
900 PM MDT THU AUG 28 2014

...OFFICIAL OBSERVATIONS...

CITY           SKY/WX    TMP DP  RH WIND       PRES   REMARKS
GOODLAND KS    MOCLDY    65  58  78 NW9       30.01S
HILL CITY KS   CLOUDY    72  67  84 CALM      29.88S
IMPERIAL NEB   PTCLDY    64  56  75 NW7       29.98R
MCCOOK NEB     MOCLDY    69  59  70 W12       29.92R
AKRON CO       PTCLDY    58  55  90 W9        30.08S
BURLINGTON CO  PTCLDY    63  55  75 NW7       30.06R
LIMON CO       MOCLDY    56  50  80 NW8       30.14R
$$

...UNOFFICIAL OBSERVATIONS...

CITY           SKY/WX    TMP DP  RH WIND       PRES   REMARKS
COLBY KS       CLEAR     66  64  94 W7        29.97S
GOVE KS          N/A     72  32  23 CALM        N/A
NORTON KS      LGT RAIN  70  61  73 S10       29.89
SHARON SPRINGS   N/A     61  59  92 W5          N/A
WAKEENEY KS      N/A     74  62  66 MISG        N/A
KIT CARSON CO    N/A     63  52  67 CALM        N/A
YUMA CO          N/A     60  56  86 W9          N/A
$$


USA.gov is the U.S. government's official web portal to all federal, state and local government web resources and services.